Location: Bosdarros
(43.2167°N, 0.3667°W)
Time: 15:52:37
(UTC+00:00)

OBJECT-B - Pass Details

Date: 22 April 2021
Orbit: 415 x 424 km, 97.0° (Epoch: 25 April)

Event Time Altitude Azimuth Distance (km) Brightness Sun altitude
Exits shadow 19:53:28 - 170° (S) 1,779 3.6 -11.0°
Reaches altitude 10° 19:54:07 10° 171° (S) 1,497 3.2 -11.1°
Maximum altitude 19:57:19 80° 257° (WSW) 433 0.8 -11.6°
Drops below altitude 10° 20:00:34 10° 346° (NNW) 1,516 4.2 -12.1°
Sets 20:02:35 0° 348° (NNW) 2,388 5.3 -12.4°
